Tracking 31027 objects as of 19-Jul-2025
HD Live streaming from Space Station
objects crossing your sky now

METEOR 1-17 DEB

Track METEOR 1-17 DEB now!
10-day predictions


NORAD ID: 57545
Int'l Code: 1974-025L
Perigee: 819.0 km
Apogee: 844.4 km
Inclination: 81.2 °
Period: 101.4 minutes
Semi major axis: 7202 km
RCS: Unknown
Launch date: April 24, 1974
Source: Commonwealth of Independent States (former USSR) (CIS)
Launch site: PLESETSK MISSILE AND SPACE COMPLEX (PKMTR)

Note: This is SATELLITE DEBRIS
Your satellite tracking list
OBJECT A
Track 1 satellite(s)




NASA's NSSDC Master Catalog

Two Line Element Set (TLE):
1 57545U 74025L   25199.87645777  .00003414  00000-0  15900-2 0  9990
2 57545  81.2135 256.0253 0017596 122.8082 237.4792 14.20239979 60907
Source of the keplerian elements: AFSPC